Time,TemperatureF,DewpointF,PressureIn,WindDirection,WindDirectionDegrees,WindSpeedMPH,WindSpeedGustMPH,Humidity,HourlyPrecipIn,Conditions,Clouds,dailyrainin,SoftwareType,DateUTC
2013-04-27 00:03:00,43.0,38.0,30.36,East,87,0.0,0.0,81,0.00,,,0.00,,2013-04-27 04:03:00,
2013-04-27 00:13:00,43.0,38.0,30.36,East,87,0.0,0.0,81,0.00,,,0.00,,2013-04-27 04:13:00,
2013-04-27 00:23:00,42.0,37.0,30.36,East,87,0.0,1.0,83,0.00,,,0.00,,2013-04-27 04:23:00,
2013-04-27 00:33:00,42.0,38.0,30.36,East,87,0.0,1.0,84,0.00,,,0.00,,2013-04-27 04:33:00,
2013-04-27 00:43:00,42.0,38.0,30.36,East,87,0.0,1.0,84,0.00,,,0.00,,2013-04-27 04:43:00,
2013-04-27 00:53:00,41.0,37.0,30.36,East,87,0.0,1.0,86,0.00,,,0.00,,2013-04-27 04:53:00,
2013-04-27 01:02:00,41.0,38.0,30.36,East,86,0.0,1.0,88,0.00,,,0.00,,2013-04-27 05:02:00,
2013-04-27 01:12:00,41.0,38.0,30.36,East,86,0.0,1.0,88,0.00,,,0.00,,2013-04-27 05:12:00,
2013-04-27 01:22:00,40.0,37.0,30.36,East,86,0.0,0.0,88,0.00,,,0.00,,2013-04-27 05:22:00,
2013-04-27 01:32:00,40.0,37.0,30.35,East,86,0.0,0.0,88,0.00,,,0.00,,2013-04-27 05:32:00,
2013-04-27 01:42:00,40.0,37.0,30.35,East,86,0.0,0.0,88,0.00,,,0.00,,2013-04-27 05:42:00,
2013-04-27 01:52:00,40.0,36.0,30.35,East,86,0.0,0.0,87,0.00,,,0.00,,2013-04-27 05:52:00,
2013-04-27 02:02:00,40.0,36.0,30.35,East,86,0.0,0.0,87,0.00,,,0.00,,2013-04-27 06:02:00,
2013-04-27 02:12:00,40.0,36.0,30.35,East,86,0.0,0.0,87,0.00,,,0.00,,2013-04-27 06:12:00,
2013-04-27 02:22:00,39.0,36.0,30.35,East,86,0.0,1.0,88,0.00,,,0.00,,2013-04-27 06:22:00,
2013-04-27 02:32:00,39.0,37.0,30.35,East,86,0.0,1.0,91,0.00,,,0.00,,2013-04-27 06:32:00,
2013-04-27 02:42:00,39.0,37.0,30.35,East,86,0.0,1.0,91,0.00,,,0.00,,2013-04-27 06:42:00,
2013-04-27 02:52:00,38.0,36.0,30.35,East,86,0.0,1.0,92,0.00,,,0.00,,2013-04-27 06:52:00,
2013-04-27 03:01:00,38.0,36.0,30.35,East,86,0.0,1.0,92,0.00,,,0.00,,2013-04-27 07:01:00,
2013-04-27 03:11:00,38.0,36.0,30.35,East,86,0.0,1.0,92,0.00,,,0.00,,2013-04-27 07:11:00,
2013-04-27 03:21:00,37.0,35.0,30.35,East,86,0.0,0.0,93,0.00,,,0.00,,2013-04-27 07:21:00,
2013-04-27 03:32:00,37.0,35.0,30.35,East,86,0.0,0.0,93,0.00,,,0.00,,2013-04-27 07:32:00,
2013-04-27 03:42:00,37.0,35.0,30.35,East,86,0.0,0.0,93,0.00,,,0.00,,2013-04-27 07:42:00,
2013-04-27 03:52:00,37.0,35.0,30.35,East,87,0.0,0.0,93,0.00,,,0.00,,2013-04-27 07:52:00,
2013-04-27 04:01:00,37.0,35.0,30.35,East,86,0.0,1.0,94,0.00,,,0.00,,2013-04-27 08:01:00,
2013-04-27 04:11:00,37.0,35.0,30.35,East,86,0.0,1.0,94,0.00,,,0.00,,2013-04-27 08:11:00,
2013-04-27 04:21:00,36.0,35.0,30.34,East,86,0.0,0.0,95,0.00,,,0.00,,2013-04-27 08:21:00,
2013-04-27 04:33:00,36.0,35.0,30.35,East,86,0.0,0.0,95,0.00,,,0.00,,2013-04-27 08:33:00,
2013-04-27 04:42:00,36.0,35.0,30.35,East,86,0.0,0.0,95,0.00,,,0.00,,2013-04-27 08:42:00,
2013-04-27 04:52:00,36.0,35.0,30.35,East,86,0.0,0.0,95,0.00,,,0.00,,2013-04-27 08:52:00,
2013-04-27 05:01:00,36.0,35.0,30.35,East,86,0.0,0.0,96,0.00,,,0.00,,2013-04-27 09:01:00,
2013-04-27 05:11:00,36.0,35.0,30.35,East,86,0.0,0.0,96,0.00,,,0.00,,2013-04-27 09:11:00,
2013-04-27 05:22:00,36.0,35.0,30.35,East,86,0.0,0.0,96,0.00,,,0.00,,2013-04-27 09:22:00,
2013-04-27 05:33:00,35.0,34.0,30.35,East,86,0.0,0.0,96,0.00,,,0.00,,2013-04-27 09:33:00,
2013-04-27 05:42:00,35.0,34.0,30.35,East,86,0.0,0.0,96,0.00,,,0.00,,2013-04-27 09:42:00,
2013-04-27 05:53:00,35.0,34.0,30.34,East,86,0.0,0.0,96,0.00,,,0.00,,2013-04-27 09:53:00,
2013-04-27 06:03:00,35.0,34.0,30.34,East,86,0.0,0.0,97,0.00,,,0.00,,2013-04-27 10:03:00,
2013-04-27 06:12:00,35.0,34.0,30.34,East,86,0.0,0.0,97,0.00,,,0.00,,2013-04-27 10:12:00,
2013-04-27 06:22:00,35.0,34.0,30.33,East,86,0.0,0.0,97,0.00,,,0.00,,2013-04-27 10:22:00,
2013-04-27 06:33:00,34.0,33.0,30.33,East,86,0.0,0.0,97,0.00,,,0.00,,2013-04-27 10:33:00,
2013-04-27 06:42:00,34.0,33.0,30.33,East,86,0.0,0.0,97,0.00,,,0.00,,2013-04-27 10:42:00,
2013-04-27 06:52:00,34.0,33.0,30.33,East,86,0.0,0.0,97,0.00,,,0.00,,2013-04-27 10:52:00,
2013-04-27 07:02:00,34.0,33.0,30.33,East,86,0.0,0.0,97,0.00,,,0.00,,2013-04-27 11:02:00,
2013-04-27 07:12:00,34.0,33.0,30.33,East,86,0.0,0.0,97,0.00,,,0.00,,2013-04-27 11:12:00,
2013-04-27 07:22:00,34.0,33.0,30.33,East,86,0.0,0.0,97,0.00,,,0.00,,2013-04-27 11:22:00,
2013-04-27 07:32:00,34.0,34.0,30.33,East,86,0.0,0.0,98,0.00,,,0.00,,2013-04-27 11:32:00,
2013-04-27 07:42:00,34.0,34.0,30.33,East,86,0.0,0.0,98,0.00,,,0.00,,2013-04-27 11:42:00,
2013-04-27 07:52:00,36.0,35.0,30.34,East,86,0.0,0.0,98,0.00,,,0.00,,2013-04-27 11:52:00,
2013-04-27 08:01:00,39.0,38.0,30.35,East,86,0.0,0.0,98,0.00,,,0.00,,2013-04-27 12:01:00,
2013-04-27 08:11:00,39.0,38.0,30.35,East,86,0.0,0.0,98,0.00,,,0.00,,2013-04-27 12:11:00,
2013-04-27 08:22:00,42.0,41.0,30.35,East,86,0.0,0.0,98,0.00,,,0.00,,2013-04-27 12:22:00,
2013-04-27 08:32:00,45.0,43.0,30.35,East,87,0.0,0.0,94,0.00,,,0.00,,2013-04-27 12:32:00,
2013-04-27 08:42:00,45.0,43.0,30.35,East,87,0.0,0.0,94,0.00,,,0.00,,2013-04-27 12:42:00,
2013-04-27 08:52:00,47.0,43.0,30.35,East,88,0.0,0.0,86,0.00,,,0.00,,2013-04-27 12:52:00,
2013-04-27 09:02:00,48.0,42.0,30.35,SSW,201,0.0,1.0,79,0.00,,,0.00,,2013-04-27 13:02:00,
2013-04-27 09:12:00,48.0,42.0,30.35,SSW,201,0.0,1.0,79,0.00,,,0.00,,2013-04-27 13:12:00,
2013-04-27 09:22:00,50.0,41.0,30.35,SSE,166,0.0,1.0,70,0.00,,,0.00,,2013-04-27 13:22:00,
2013-04-27 09:32:00,52.0,41.0,30.34,SW,232,0.0,2.0,65,0.00,,,0.00,,2013-04-27 13:32:00,
2013-04-27 09:42:00,52.0,41.0,30.34,SW,232,0.0,2.0,65,0.00,,,0.00,,2013-04-27 13:42:00,
2013-04-27 09:52:00,53.0,40.0,30.34,SSW,193,0.0,2.0,62,0.00,,,0.00,,2013-04-27 13:52:00,
2013-04-27 10:02:00,55.0,40.0,30.33,WSW,238,0.0,3.0,57,0.00,,,0.00,,2013-04-27 14:02:00,
2013-04-27 10:11:00,55.0,40.0,30.33,WSW,238,0.0,3.0,57,0.00,,,0.00,,2013-04-27 14:11:00,
2013-04-27 10:21:00,57.0,40.0,30.32,WSW,239,0.0,2.0,52,0.00,,,0.00,,2013-04-27 14:21:00,
2013-04-27 10:32:00,58.0,39.0,30.32,South,183,1.0,5.0,49,0.00,,,0.00,,2013-04-27 14:32:00,
2013-04-27 10:42:00,58.0,39.0,30.32,South,183,1.0,5.0,49,0.00,,,0.00,,2013-04-27 14:42:00,
2013-04-27 10:52:00,59.0,37.0,30.31,WSW,255,2.0,6.0,43,0.00,,,0.00,,2013-04-27 14:52:00,
2013-04-27 11:01:00,59.0,38.0,30.31,West,277,0.0,4.0,45,0.00,,,0.00,,2013-04-27 15:01:00,
2013-04-27 11:12:00,59.0,38.0,30.31,West,277,0.0,4.0,45,0.00,,,0.00,,2013-04-27 15:12:00,
2013-04-27 11:22:00,60.0,36.0,30.31,SW,235,2.0,7.0,40,0.00,,,0.00,,2013-04-27 15:22:00,
2013-04-27 11:33:00,61.0,37.0,30.31,South,173,1.0,7.0,41,0.00,,,0.00,,2013-04-27 15:33:00,
2013-04-27 11:43:00,61.0,37.0,30.31,South,173,1.0,7.0,41,0.00,,,0.00,,2013-04-27 15:43:00,
2013-04-27 11:53:00,61.0,38.0,30.30,SSE,152,0.0,6.0,42,0.00,,,0.00,,2013-04-27 15:53:00,
2013-04-27 12:03:00,62.0,37.0,30.29,SW,226,2.0,6.0,40,0.00,,,0.00,,2013-04-27 16:03:00,
2013-04-27 12:13:00,62.0,37.0,30.29,SW,226,2.0,6.0,40,0.00,,,0.00,,2013-04-27 16:13:00,
2013-04-27 12:22:00,62.0,37.0,30.29,ESE,113,1.0,7.0,40,0.00,,,0.00,,2013-04-27 16:22:00,
2013-04-27 12:33:00,63.0,37.0,30.29,SSW,208,1.0,6.0,38,0.00,,,0.00,,2013-04-27 16:33:00,
2013-04-27 12:42:00,63.0,37.0,30.29,SSW,208,1.0,6.0,38,0.00,,,0.00,,2013-04-27 16:42:00,
2013-04-27 12:53:00,63.0,36.0,30.28,SE,139,2.0,5.0,37,0.00,,,0.00,,2013-04-27 16:53:00,
2013-04-27 13:02:00,64.0,37.0,30.27,SE,138,2.0,7.0,37,0.00,,,0.00,,2013-04-27 17:02:00,
2013-04-27 13:12:00,64.0,37.0,30.27,SE,138,2.0,7.0,37,0.00,,,0.00,,2013-04-27 17:12:00,
2013-04-27 13:22:00,64.0,37.0,30.27,SW,214,2.0,6.0,36,0.00,,,0.00,,2013-04-27 17:22:00,
2013-04-27 13:32:00,65.0,38.0,30.26,ESE,112,1.0,7.0,37,0.00,,,0.00,,2013-04-27 17:32:00,
2013-04-27 13:42:00,65.0,38.0,30.26,ESE,112,1.0,7.0,37,0.00,,,0.00,,2013-04-27 17:42:00,
2013-04-27 13:53:00,65.0,36.0,30.26,SE,131,3.0,7.0,34,0.00,,,0.00,,2013-04-27 17:53:00,
2013-04-27 14:02:00,67.0,38.0,30.25,ESE,114,0.0,6.0,35,0.00,,,0.00,,2013-04-27 18:02:00,
2013-04-27 14:12:00,67.0,38.0,30.25,ESE,114,0.0,6.0,35,0.00,,,0.00,,2013-04-27 18:12:00,
2013-04-27 14:22:00,67.0,35.0,30.25,ESE,113,3.0,7.0,31,0.00,,,0.00,,2013-04-27 18:22:00,
2013-04-27 14:32:00,67.0,36.0,30.24,East,84,2.0,6.0,32,0.00,,,0.00,,2013-04-27 18:32:00,
2013-04-27 14:42:00,67.0,36.0,30.24,East,84,2.0,6.0,32,0.00,,,0.00,,2013-04-27 18:42:00,
2013-04-27 14:52:00,68.0,38.0,30.24,WSW,238,1.0,5.0,33,0.00,,,0.00,,2013-04-27 18:52:00,
2013-04-27 15:02:00,68.0,37.0,30.24,WSW,256,2.0,7.0,32,0.00,,,0.00,,2013-04-27 19:02:00,
2013-04-27 15:11:00,68.0,37.0,30.24,WSW,256,2.0,7.0,32,0.00,,,0.00,,2013-04-27 19:11:00,
2013-04-27 15:22:00,68.0,35.0,30.24,SSW,200,1.0,11.0,29,0.00,,,0.00,,2013-04-27 19:22:00,
2013-04-27 15:32:00,68.0,34.0,30.23,SSE,150,2.0,8.0,28,0.00,,,0.00,,2013-04-27 19:32:00,
2013-04-27 15:42:00,68.0,34.0,30.23,SSE,150,2.0,8.0,28,0.00,,,0.00,,2013-04-27 19:42:00,
2013-04-27 15:53:00,68.0,33.0,30.22,WSW,238,3.0,7.0,27,0.00,,,0.00,,2013-04-27 19:53:00,
2013-04-27 16:02:00,69.0,35.0,30.21,ENE,77,3.0,6.0,29,0.00,,,0.00,,2013-04-27 20:02:00,
2013-04-27 16:11:00,69.0,35.0,30.21,ENE,77,3.0,6.0,29,0.00,,,0.00,,2013-04-27 20:11:00,
2013-04-27 16:22:00,68.0,34.0,30.21,SE,136,2.0,5.0,28,0.00,,,0.00,,2013-04-27 20:22:00,
2013-04-27 16:32:00,69.0,35.0,30.20,NE,51,2.0,4.0,28,0.00,,,0.00,,2013-04-27 20:32:00,
2013-04-27 16:42:00,69.0,35.0,30.20,NE,51,2.0,4.0,28,0.00,,,0.00,,2013-04-27 20:42:00,
2013-04-27 16:52:00,69.0,35.0,30.20,SE,131,1.0,5.0,28,0.00,,,0.00,,2013-04-27 20:52:00,
2013-04-27 17:02:00,69.0,36.0,30.19,SSE,165,2.0,5.0,30,0.00,,,0.00,,2013-04-27 21:02:00,
2013-04-27 17:12:00,69.0,36.0,30.19,SSE,165,2.0,5.0,30,0.00,,,0.00,,2013-04-27 21:12:00,
2013-04-27 17:21:00,69.0,39.0,30.18,SW,217,2.0,7.0,33,0.00,,,0.00,,2013-04-27 21:21:00,
2013-04-27 17:33:00,70.0,39.0,30.17,SW,226,1.0,5.0,32,0.00,,,0.00,,2013-04-27 21:33:00,
2013-04-27 17:43:00,70.0,39.0,30.17,SW,226,1.0,5.0,32,0.00,,,0.00,,2013-04-27 21:43:00,
2013-04-27 17:53:00,68.0,38.0,30.17,SE,132,1.0,7.0,33,0.00,,,0.00,,2013-04-27 21:53:00,
2013-04-27 18:03:00,68.0,39.0,30.17,ENE,72,1.0,4.0,35,0.00,,,0.00,,2013-04-27 22:03:00,
2013-04-27 18:13:00,68.0,39.0,30.17,ENE,72,1.0,4.0,35,0.00,,,0.00,,2013-04-27 22:13:00,
2013-04-27 18:23:00,68.0,39.0,30.16,East,87,1.0,6.0,35,0.00,,,0.00,,2013-04-27 22:23:00,
2013-04-27 18:32:00,68.0,39.0,30.16,ENE,69,1.0,2.0,35,0.00,,,0.00,,2013-04-27 22:32:00,
2013-04-27 18:42:00,68.0,39.0,30.16,ENE,69,1.0,2.0,35,0.00,,,0.00,,2013-04-27 22:42:00,
2013-04-27 18:53:00,67.0,38.0,30.15,East,101,1.0,6.0,34,0.00,,,0.00,,2013-04-27 22:53:00,
2013-04-27 19:02:00,67.0,38.0,30.15,East,100,0.0,5.0,35,0.00,,,0.00,,2013-04-27 23:02:00,
2013-04-27 19:12:00,67.0,38.0,30.15,East,100,0.0,5.0,35,0.00,,,0.00,,2013-04-27 23:12:00,
2013-04-27 19:22:00,67.0,38.0,30.15,SE,125,0.0,5.0,35,0.00,,,0.00,,2013-04-27 23:22:00,
2013-04-27 19:32:00,66.0,38.0,30.14,East,82,1.0,3.0,35,0.00,,,0.00,,2013-04-27 23:32:00,
2013-04-27 19:42:00,66.0,38.0,30.14,East,82,1.0,3.0,35,0.00,,,0.00,,2013-04-27 23:42:00,
2013-04-27 19:52:00,66.0,38.0,30.14,ENE,77,1.0,3.0,36,0.00,,,0.00,,2013-04-27 23:52:00,
2013-04-27 20:01:00,65.0,38.0,30.14,ESE,117,1.0,4.0,37,0.00,,,0.00,,2013-04-28 00:01:00,
2013-04-27 20:12:00,65.0,38.0,30.14,ESE,117,1.0,4.0,37,0.00,,,0.00,,2013-04-28 00:12:00,
2013-04-27 20:22:00,64.0,39.0,30.14,East,101,1.0,3.0,39,0.00,,,0.00,,2013-04-28 00:22:00,
2013-04-27 20:32:00,63.0,39.0,30.14,ESE,103,0.0,4.0,41,0.00,,,0.00,,2013-04-28 00:32:00,
2013-04-27 20:43:00,63.0,39.0,30.14,ESE,103,0.0,4.0,41,0.00,,,0.00,,2013-04-28 00:43:00,
2013-04-27 20:52:00,61.0,38.0,30.14,ESE,113,0.0,1.0,42,0.00,,,0.00,,2013-04-28 00:52:00,
2013-04-27 21:02:00,60.0,39.0,30.14,East,90,0.0,1.0,46,0.00,,,0.00,,2013-04-28 01:02:00,
2013-04-27 21:11:00,60.0,39.0,30.14,East,90,0.0,1.0,46,0.00,,,0.00,,2013-04-28 01:11:00,
2013-04-27 21:22:00,58.0,38.0,30.14,East,91,0.0,1.0,48,0.00,,,0.00,,2013-04-28 01:22:00,
2013-04-27 21:32:00,56.0,38.0,30.14,East,91,0.0,0.0,50,0.00,,,0.00,,2013-04-28 01:32:00,
2013-04-27 21:42:00,56.0,38.0,30.14,East,91,0.0,0.0,50,0.00,,,0.00,,2013-04-28 01:42:00,
2013-04-27 21:52:00,55.0,38.0,30.14,East,91,0.0,1.0,53,0.00,,,0.00,,2013-04-28 01:52:00,
2013-04-27 22:02:00,54.0,38.0,30.14,East,91,0.0,0.0,54,0.00,,,0.00,,2013-04-28 02:02:00,
2013-04-27 22:12:00,54.0,38.0,30.14,East,91,0.0,0.0,54,0.00,,,0.00,,2013-04-28 02:12:00,
2013-04-27 22:22:00,54.0,38.0,30.14,East,90,0.0,0.0,55,0.00,,,0.00,,2013-04-28 02:22:00,
2013-04-27 22:32:00,52.0,39.0,30.14,East,90,0.0,0.0,60,0.00,,,0.00,,2013-04-28 02:32:00,
2013-04-27 22:42:00,52.0,39.0,30.14,East,90,0.0,0.0,60,0.00,,,0.00,,2013-04-28 02:42:00,
2013-04-27 22:52:00,51.0,38.0,30.14,East,90,0.0,0.0,62,0.00,,,0.00,,2013-04-28 02:52:00,
2013-04-27 23:01:00,51.0,40.0,30.14,East,91,0.0,0.0,65,0.00,,,0.00,,2013-04-28 03:01:00,
2013-04-27 23:11:00,51.0,40.0,30.14,East,91,0.0,0.0,65,0.00,,,0.00,,2013-04-28 03:11:00,
2013-04-27 23:21:00,50.0,39.0,30.13,East,90,0.0,0.0,65,0.00,,,0.00,,2013-04-28 03:21:00,
2013-04-27 23:33:00,49.0,38.0,30.13,East,91,0.0,0.0,66,0.00,,,0.00,,2013-04-28 03:33:00,
2013-04-27 23:43:00,49.0,38.0,30.13,East,91,0.0,0.0,66,0.00,,,0.00,,2013-04-28 03:43:00,
2013-04-27 23:53:00,49.0,38.0,30.12,East,90,0.0,0.0,65,0.00,,,0.00,,2013-04-28 03:53:00,